Temp
7 7 7 6 6 6 6 6 6 6 6 6 6 6 7 7 8 8 12 13 12 14 17 18 20 20 21 21 19 23 23 26 26 25 28 29 30 32 33 34 35 34 34 36 36 36 35 40 40 39 39 40 39 40
7 7 7 7 7 7 7 7 7 6 6 6 6 6 7 7 7 8 10 13 11 10 15 14 15 16 17 20 21 23 23 23 21 21 21 26 26 32 33 33 37 36 36 36 37 37 36 37 38 37 38 37 37 38
7 7 7 7 7 7 7 7 7 6 6 6 6 6 7 7 7 7 9 10 10 11 16 19 22 21 20 18 19 21 23 23 20 18 19 21 25 30 30 35 35 33 38 38 36 36 36 36 37 37 37 37 37 37
8 7 7 7 7 7 7 8 7 6 7 7 7 8 8 7 7 7 9 10 11 11 14 21 22 23 23 23 21 20 22 19 16 14 16 18 22 21 30 33 32 26 34 36 35 34 34 34 35 35 35 36 36 36
8 7 7 7 7 7 7 7 7 7 8 8 8 8 8 7 7 7 9 10 9 12 15 18 18 21 22 23 22 22 21 19 15 14 16 17 22 27 31 32 30 20 28 36 33 34 33 33 34 35 35 34 35 34
8 7 7 7 6 6 7 7 7 8 8 8 8 8 8 7 7 7 15 13 9 8 8 12 20 22 23 22 22 20 18 14 13 14 16 20 25 28 30 31 31 29 32 35 32 35 34 34 35 35 35 35 35 34
8 8 7 7 7 7 6 7 7 8 9 9 9 9 8 8 7 10 14 9 9 8 8 10 18 20 21 22 19 17 16 14 14 16 18 20 23 28 30 28 31 31 32 32 34 33 33 35 34 35 35 35 33 35
7 7 7 7 7 6 6 7 8 8 9 10 10 8 9 8 7 9 12 9 8 8 8 11 18 17 21 21 19 17 15 14 18 19 24 25 27 30 29 21 26 31 31 31 32 34 34 33 34 34 35 35 34 33
7 6 6 7 7 6 6 6 7 9 10 10 10 8 8 9 11 11 10 9 8 8 10 13 16 15 13 17 20 15 13 15 22 22 23 25 27 26 24 26 26 28 29 30 32 33 33 33 33 33 34 34 33 32
6 6 6 6 6 6 6 6 6 9 10 11 11 11 13 11 10 9 8 8 8 9 10 12 19 16 16 16 21 15 14 18 24 26 27 25 25 25 26 25 26 27 28 30 31 31 32 32 32 32 32 33 32 31
6 6 6 6 6 6 5 5 7 8 12 14 16 18 14 12 13 12 13 11 11 11 12 16 20 18 21 19 17 21 18 24 25 25 26 24 27 24 25 25 26 27 28 28 29 29 30 30 30 31 30 30 30 29
6 5 5 6 6 6 5 5 7 9 11 10 9 9 10 12 14 15 15 13 13 15 16 18 18 19 21 20 19 22 20 26 20 27 26 26 22 24 24 25 25 26 27 28 28 28 29 29 30 30 29 29 28 27
6 5 5 6 6 5 5 6 7 7 7 11 9 10 12 17 14 17 14 13 12 13 15 18 18 19 20 21 20 21 18 24 24 27 27 24 24 24 24 25 26 26 27 27 27 27 27 28 29 29 28 27 26 26
5 5 5 6 6 6 5 7 7 7 9 16 15 12 17 17 20 18 17 16 15 16 17 18 18 18 20 19 16 20 25 27 25 27 24 24 24 24 24 25 25 25 26 26 26 26 27 27 26 26 26 26 25 25
5 5 6 6 6 5 6 7 7 8 13 16 17 14 19 21 21 19 18 16 17 18 19 19 18 19 20 20 19 19 24 20 23 23 20 22 23 23 23 24 24 24 25 25 26 26 26 26 26 25 25 25 24 24
5 5 6 6 6 6 7 8 8 11 14 16 17 18 21 21 20 19 17 17 20 20 21 20 17 20 22 19 22 24 24 23 27 26 25 24 22 22 23 23 23 23 23 24 25 25 25 25 25 25 24 24 24 23
5 6 7 7 7 7 7 8 13 14 16 17 19 20 20 21 21 21 20 18 20 21 18 19 19 21 24 25 23 23 18 25 27 26 25 22 22 21 22 22 22 22 22 22 22 20 22 23 24 23 22 22 23 23
5 7 7 7 7 8 11 10 15 16 16 18 19 21 22 22 21 21 20 19 20 21 21 19 20 20 21 21 21 25 25 25 26 25 24 22 22 22 23 22 22 22 22 21 21 20 20 21 23 23 23 22 22 22
6 6 5 6 6 7 13 14 14 16 18 20 21 21 21 21 21 20 21 21 21 21 20 19 19 20 19 20 21 21 24 26 24 24 23 22 22 22 21 20 20 22 22 22 22 22 21 21 22 23 23 23 23 23
5 6 6 6 5 8 13 15 14 15 17 20 20 20 20 21 21 21 21 21 22 20 19 19 19 17 18 19 20 22 22 25 26 25 24 23 22 20 19 21 21 22 22 23 23 22 24 23 23 23 22 21 21 23
6 7 7 6 6 8 13 16 16 17 19 19 21 21 21 22 21 21 21 22 21 20 22 23 23 23 22 23 22 23 23 24 23 24 22 20 22 23 22 20 19 22 22 23 21 21 21 23 23 22 21 21 21 16
8 8 8 8 9 11 11 14 16 18 17 19 20 20 20 21 21 22 22 22 22 23 23 23 23 23 23 22 23 22 21 21 22 21 20 21 23 23 21 22 21 21 21 23 24 23 23 21 18 20 20 17 15 15
7 8 11 11 11 11 11 15 15 17 17 19 20 20 21 21 21 22 21 22 23 24 23 23 22 21 21 21 21 21 21 22 22 22 22 23 24 23 22 19 18 20 22 22 22 21 20 17 17 16 13 12 12 11
8 10 11 12 13 11 16 16 17 17 19 19 20 20 21 21 21 20 21 22 23 23 23 22 22 22 22 19 22 22 22 23 20 19 22 23 23 24 23 23 23 23 22 22 21 20 18 16 15 14 13 13 12 12
9 9 10 6 14 14 15 16 17 18 18 19 19 20 21 21 19 19 20 18 23 22 22 21 21 21 23 23 24 24 22 22 23 21 23 23 23 24 23 23 22 22 22 21 20 19 17 16 15 15 15 15 14 12
8 12 9 14 15 15 17 17 18 18 19 19 20 22 22 21 20 20 19 19 19 20 20 21 22 22 23 23 23 22 23 24 24 24 23 24 24 19 17 23 23 22 21 21 20 19 17 16 16 16 15 14 13 14
8 13 15 16 17 17 17 18 19 19 18 20 21 21 20 19 19 18 17 18 17 18 20 21 22 22 23 22 23 24 23 23 23 23 23 23 23 24 23 23 24 21 21 20 19 19 18 17 17 16 16 15 15 15
13 15 14 16 16 17 17 18 19 19 20 22 21 19 19 18 17 16 16 17 15 19 21 21 22 22 23 23 23 23 22 23 23 23 23 23 23 23 23 21 20 20 20 20 19 19 18 17 17 17 17 17 16 17
13 15 16 15 16 17 17 18 19 21 22 20 19 19 18 20 20 20 19 17 18 21 22 20 21 22 22 22 22 22 23 23 23 23 23 24 24 23 21 20 19 20 19 17 18 19 18 18 18 18 18 18 18 18
14 16 16 16 16 16 18 19 20 22 21 21 20 20 21 21 21 19 19 19 20 22 22 22 22 22 21 21 22 22 22 22 23 23 24 21 23 22 21 21 21 20 19 19 18 17 17 17 17 18 19 19 19 19
16 17 16 16 17 18 19 20 21 21 20 20 21 20 21 21 21 20 20 20 21 22 22 23 23 23 22 22 21 22 23 23 23 22 21 21 23 22 22 21 21 20 20 19 19 18 18 19 19 19 19 19 19 19
16 15 16 16 17 19 20 19 20 19 20 20 20 21 20 20 20 21 21 21 21 22 20 21 22 22 22 22 22 21 21 23 22 23 23 24 23 22 21 21 21 20 20 20 19 19 19 20 20 20 20 19 19 19
14 16 16 17 18 18 19 19 19 19 19 19 20 20 20 21 20 23 21 21 22 22 22 22 21 21 21 21 22 22 22 22 21 22 22 22 22 22 22 21 21 20 20 20 20 20 20 20 20 20 20 20 20 19
Height
899 897 895 893 891 888 885 882 878 875 872 869 866 864 862 861 860 858 851 849 849 840 818 811 807 802 796 792 798 779 778 761 760 760 744 734 727 709 710 694 699 705 715 709 708 717 728 664 669 691 679 669 673 669
897 894 891 889 887 886 883 879 876 873 869 867 864 862 860 858 858 856 852 846 846 845 820 810 804 801 797 792 788 779 776 772 772 765 755 735 733 699 695 702 670 693 687 698 691 693 676 668 673 671 671 681 680 680
893 891 889 886 883 880 879 877 873 870 867 864 861 859 856 855 854 854 850 847 844 838 811 791 776 774 777 780 785 783 771 769 774 779 775 761 735 701 707 680 671 677 658 671 683 678 677 676 672 673 675 677 678 680
889 888 886 882 881 878 874 873 870 866 863 860 857 854 852 850 849 848 845 843 841 838 818 777 770 765 765 764 770 775 775 779 786 783 778 778 751 729 692 673 678 690 675 669 676 678 683 676 676 676 679 680 680 681
884 884 883 881 877 874 872 868 866 863 859 855 852 849 847 845 842 840 836 833 835 835 810 786 777 756 756 755 761 762 769 778 787 790 784 775 749 715 674 675 684 709 689 667 681 674 677 682 680 679 684 687 686 688
878 877 875 875 874 871 866 864 861 857 854 850 846 843 840 838 836 836 821 821 826 831 831 806 763 755 748 752 752 763 772 784 787 784 780 750 720 715 688 689 675 675 664 659 677 667 674 678 680 683 687 689 692 695
872 871 870 869 867 865 863 859 856 852 848 844 839 836 832 830 831 830 820 824 825 829 829 810 771 754 749 749 763 773 778 781 780 774 764 747 717 698 688 696 675 676 680 670 672 677 684 681 688 686 689 693 696 700
865 865 864 864 863 862 858 855 851 847 841 837 832 827 823 821 823 823 815 820 823 826 824 807 770 759 753 754 761 769 775 775 762 755 733 723 708 691 698 708 697 682 677 683 682 677 681 688 689 692 694 697 703 707
858 858 858 858 858 856 855 850 847 842 836 830 826 823 821 821 818 816 816 817 818 823 811 796 776 770 768 756 750 770 773 766 739 737 731 721 706 712 715 708 710 693 691 692 685 685 687 693 698 698 699 701 706 713
852 853 852 852 852 851 850 846 843 838 832 826 822 820 813 816 816 817 816 819 820 815 809 792 765 769 762 753 742 763 764 747 729 716 710 722 717 714 712 714 710 706 703 698 693 699 699 703 704 705 707 707 709 718
846 847 848 847 847 846 845 843 840 836 830 825 818 808 814 815 815 812 804 809 806 798 791 774 755 760 745 748 750 739 747 721 716 719 716 727 715 720 714 713 711 709 706 705 706 708 709 710 711 712 714 717 721 725
842 842 843 842 842 842 841 840 838 838 834 833 831 824 819 812 804 796 792 798 793 780 771 765 760 754 746 743 746 733 736 712 744 704 717 716 728 721 718 716 716 714 712 712 712 712 712 713 713 715 719 721 726 733
836 838 838 837 838 838 837 837 836 834 830 827 827 822 813 794 798 786 794 796 796 787 775 766 761 752 746 741 742 738 741 724 714 707 707 720 722 723 722 721 721 720 719 719 718 718 718 718 717 719 723 728 732 736
832 834 833 833 833 833 832 832 833 832 829 815 809 811 793 786 769 777 778 783 785 780 773 766 763 758 746 750 755 741 706 696 715 705 721 717 719 722 724 725 725 726 725 724 724 724 724 725 727 728 731 734 737 741
828 830 829 828 828 828 829 830 830 831 824 808 799 801 777 766 763 769 775 780 775 771 766 762 760 754 745 746 748 743 721 737 722 725 729 726 727 724 728 729 730 732 730 729 727 729 730 732 733 735 737 739 743 745
825 826 823 823 823 826 827 826 826 825 815 805 794 782 768 763 761 767 772 771 765 760 755 756 762 749 738 747 729 722 722 726 705 710 720 727 727 729 733 734 736 737 735 733 733 733 734 735 737 739 741 744 746 748
822 823 821 821 822 823 824 823 819 815 803 792 777 771 769 766 762 760 762 767 762 758 761 755 751 743 722 717 725 720 735 708 706 712 720 728 732 736 737 739 741 742 742 742 742 741 740 739 740 742 747 749 748 749
818 819 820 820 820 820 818 818 808 799 792 781 774 765 759 759 758 757 761 763 760 752 749 755 746 745 743 739 736 713 711 712 715 722 728 735 738 739 740 742 744 743 745 746 747 748 749 748 746 745 749 750 749 750
815 817 818 819 820 819 811 807 805 792 777 767 763 762 762 760 758 758 757 758 757 754 753 751 751 748 749 745 740 733 723 718 726 727 733 738 740 742 745 747 748 746 745 746 747 748 750 751 751 748 747 748 746 746
814 815 815 816 818 817 806 799 800 792 777 761 761 761 758 755 753 754 753 751 750 754 756 752 753 753 752 750 744 738 734 728 724 727 734 737 741 746 748 747 747 747 747 746 745 747 745 746 747 746 749 753 751 746
811 812 813 814 816 815 803 789 785 778 769 766 755 754 753 748 750 749 748 747 748 748 742 736 737 738 739 740 739 737 735 734 734 734 741 745 743 740 744 748 749 747 746 745 746 748 747 746 747 749 750 751 750 753
808 810 811 812 810 807 803 792 783 776 774 762 756 753 751 745 742 741 741 742 741 735 736 736 736 737 737 740 737 738 740 743 742 743 745 744 742 743 745 746 749 749 749 744 744 745 747 751 756 753 752 756 760 761
808 808 805 804 803 800 795 784 781 771 766 755 749 749 742 741 739 738 741 734 732 729 733 738 740 744 744 743 743 742 745 741 744 746 744 740 740 742 745 748 750 749 747 746 749 751 754 759 759 760 763 764 765 766
806 804 798 794 792 791 776 773 769 764 756 754 747 744 738 737 736 741 735 729 728 728 732 737 739 740 741 744 741 742 742 741 746 747 743 740 741 742 742 742 743 745 747 749 751 755 759 763 764 765 767 769 770 770
804 800 797 802 780 777 770 764 762 757 756 749 746 739 736 735 742 740 735 739 728 731 735 738 739 737 734 734 733 735 741 742 742 742 741 740 740 739 741 743 747 749 750 751 754 756 761 765 767 768 769 771 772 775
800 786 792 772 767 767 759 755 753 751 746 744 739 730 728 733 737 736 737 737 739 737 738 738 736 734 732 729 731 736 737 737 737 737 740 740 739 744 749 743 745 750 752 754 756 759 763 767 769 770 773 776 778 777
794 773 768 768 759 757 757 751 744 745 747 740 731 729 735 740 735 741 743 743 743 742 738 736 733 733 733 734 732 732 733 735 738 739 739 740 741 741 742 743 743 751 754 756 758 760 764 767 770 773 775 777 779 779
772 763 762 760 761 757 755 748 744 743 736 728 730 736 736 738 743 743 743 744 744 741 737 735 733 732 732 733 733 735 737 738 739 739 740 741 741 742 745 749 752 755 756 758 760 762 765 768 772 772 774 777 779 778
766 759 756 756 755 753 752 748 738 730 728 732 735 737 738 734 735 736 739 742 742 736 733 736 735 733 734 734 736 735 734 735 736 738 739 737 740 744 751 754 756 757 760 763 762 764 767 769 771 772 773 774 776 777
757 752 751 751 750 748 743 739 734 729 730 731 734 734 733 732 732 737 738 737 737 732 732 731 731 731 732 735 733 733 734 735 735 736 734 740 740 745 750 753 755 758 761 763 765 768 771 772 774 774 773 774 774 775
747 745 748 745 741 740 737 734 733 733 733 732 731 732 730 730 732 732 734 733 731 730 728 727 726 726 728 729 733 731 731 732 733 735 738 740 740 745 749 752 755 758 761 764 766 769 771 772 771 772 772 773 775 775
745 744 743 743 739 734 732 732 732 732 732 732 731 730 731 731 731 728 726 727 729 728 728 729 728 727 728 729 729 730 732 731 735 737 739 737 742 747 750 753 756 758 761 764 766 768 770 770 770 769 772 774 774 775
745 739 740 736 732 731 728 730 729 729 727 727 726 727 726 726 726 720 724 726 725 723 725 726 727 728 729 729 729 731 733 733 737 739 741 741 745 749 751 754 757 760 762 764 766 768 770 769 770 771 772 773 773 773
Wind_Speed
13 13 13 13 14 15 16 17 17 19 18 18 17 16 15 11 10 9 12 10 11 8 19 29 21 15 13 12 12 10 12 11 13 15 16 18 19 18 23 26 27 18 17 15 17 18 20 4 6 11 6 7 8 9
13 13 13 13 15 16 18 19 19 19 19 18 17 16 14 13 10 10 14 6 5 8 16 38 41 39 37 29 15 14 13 11 5 6 4 5 14 16 21 19 22 20 18 15 15 17 9 4 3 7 5 2 3 4
15 14 14 15 16 16 18 19 20 20 20 19 17 16 14 13 12 11 16 14 12 8 17 20 16 23 24 31 33 15 12 9 3 5 5 6 10 10 12 19 14 8 23 20 11 6 7 5 4 2 1 2 1 3
17 17 17 16 17 18 18 19 21 21 21 21 19 18 17 18 18 15 18 16 10 6 6 9 13 9 10 18 26 26 23 2 4 3 3 8 13 8 11 7 3 1 13 16 12 13 7 10 9 7 6 5 4 5
19 19 19 19 19 19 20 20 22 23 23 23 23 21 21 24 20 18 22 23 20 11 7 12 33 25 19 20 26 19 17 7 1 2 4 12 16 19 12 11 12 7 23 11 8 11 12 11 8 9 10 10 10 12
20 20 19 20 22 21 20 21 23 25 26 26 27 23 23 24 16 8 4 9 19 18 3 5 11 14 8 8 13 10 12 5 2 1 6 10 30 19 12 6 14 11 13 9 10 12 14 12 11 12 13 16 16 15
21 21 20 20 21 22 22 22 25 26 27 29 28 27 28 20 10 9 4 2 11 15 2 5 5 3 5 15 10 8 10 2 4 5 8 17 15 7 9 3 15 19 10 13 11 10 11 12 10 11 12 14 13 16
23 21 20 20 21 23 22 23 26 27 28 31 30 25 18 8 9 11 12 16 16 5 4 4 6 4 6 7 6 3 2 3 6 5 10 7 12 8 3 12 16 9 17 14 10 10 12 8 9 10 10 10 10 10
23 21 20 20 20 21 22 23 26 27 29 28 16 13 2 4 5 2 2 10 21 4 3 4 4 2 6 6 4 3 1 4 6 7 5 3 5 4 9 10 6 14 12 10 8 9 9 11 7 5 5 8 11 9
24 20 19 19 19 19 20 21 24 24 24 17 10 6 3 2 3 3 2 3 3 3 4 4 10 5 4 3 3 4 4 4 6 6 3 2 3 6 8 8 9 10 9 9 5 9 6 8 5 5 5 4 11 10
22 20 19 18 17 17 18 20 19 19 15 9 6 3 9 9 4 4 3 4 4 4 5 6 7 3 5 3 2 4 3 4 4 3 2 2 1 5 7 10 10 10 10 10 6 4 3 4 3 6 7 8 10 11
22 18 18 16 16 16 16 17 14 11 12 11 14 16 7 3 5 6 1 3 5 3 5 5 5 5 5 1 4 4 3 4 2 5 1 2 4 7 8 10 10 10 11 10 8 5 2 1 3 5 7 9 12 13
20 18 17 15 15 16 15 17 10 14 18 3 4 3 3 3 2 4 3 3 3 4 3 9 9 4 3 2 2 1 10 5 5 6 2 5 9 7 7 6 8 7 8 8 8 7 5 4 4 9 9 12 14 14
19 18 16 15 15 15 19 9 9 12 6 4 4 4 4 4 4 4 6 5 4 7 9 9 7 3 1 3 2 5 4 3 3 3 7 10 11 9 7 5 5 6 6 6 7 7 8 9 11 13 14 14 14 12
16 15 15 16 13 9 4 7 11 6 5 4 3 4 7 5 4 3 1 4 7 8 8 6 5 4 3 2 2 6 2 6 5 5 5 7 9 8 7 5 5 4 3 1 2 5 7 8 9 10 11 12 11 9
11 10 15 10 10 5 9 10 7 8 4 4 6 7 8 9 1 3 3 6 5 7 7 3 4 4 6 5 5 4 1 4 8 10 9 8 9 8 7 8 8 7 5 3 1 5 5 7 9 9 9 8 6 6
9 5 5 6 7 9 7 4 6 4 5 5 6 9 9 7 7 6 4 5 8 8 4 4 4 2 6 4 4 4 2 6 9 8 9 9 8 8 8 8 9 9 8 7 9 18 12 8 6 8 7 4 5 3
8 3 4 7 7 6 5 7 5 5 7 7 8 9 7 6 6 5 3 4 6 5 5 2 5 2 4 7 7 6 8 8 8 6 7 7 8 8 8 7 8 7 9 8 9 9 6 4 2 6 2 1 5 6
10 4 4 7 3 3 3 5 6 5 7 8 6 6 6 7 5 6 4 6 6 5 4 3 3 2 2 4 6 8 6 4 5 4 7 7 8 7 6 4 2 3 5 4 11 11 9 5 3 4 6 8 10 5
12 12 10 9 7 4 4 4 6 4 6 3 4 6 6 6 5 5 7 5 5 2 3 2 2 2 5 4 4 3 7 3 2 5 6 6 8 6 3 2 2 3 6 4 4 2 2 1 3 5 6 9 9 5
5 6 5 8 6 6 5 3 5 5 6 5 5 4 5 5 7 7 8 6 5 5 5 2 3 1 4 3 4 3 1 2 3 6 5 3 2 7 9 3 1 4 5 6 10 8 5 6 8 9 8 8 6 13
3 8 5 7 7 5 4 7 6 8 4 6 6 6 6 6 6 7 7 7 8 5 6 4 3 1 1 1 3 1 6 5 8 7 3 2 1 2 3 5 5 1 7 5 4 6 7 10 11 9 8 11 8 7
4 6 6 8 5 3 6 7 5 5 4 4 4 4 5 4 3 2 4 7 6 5 6 7 5 3 5 4 4 0 4 5 7 3 5 4 4 4 8 6 4 4 8 3 4 6 8 5 9 9 8 8 9 9
4 3 3 4 8 4 5 6 5 5 4 7 5 6 4 3 5 3 7 5 3 3 4 5 5 4 5 1 3 5 10 8 9 5 8 3 4 5 2 6 5 5 8 4 5 5 7 8 8 10 12 13 16 17
2 4 4 5 5 5 5 7 10 6 6 7 7 6 3 3 3 4 4 1 3 4 3 2 4 6 7 8 7 8 9 13 11 5 6 3 8 6 6 7 6 5 2 5 5 6 10 10 10 13 13 13 12 13
4 6 5 7 5 5 5 4 6 8 8 5 5 4 2 3 4 2 2 2 3 2 3 4 4 3 4 2 5 7 12 11 6 3 5 4 5 17 10 4 5 7 4 5 6 9 11 13 13 14 15 15 12 9
4 6 6 5 5 4 5 6 4 3 4 5 5 4 2 4 2 3 3 3 1 1 4 4 6 5 4 3 3 2 3 6 5 1 4 2 3 3 6 3 8 9 6 7 8 10 14 14 15 15 15 14 8 6
7 4 10 8 7 6 8 7 7 6 6 4 3 3 3 3 2 2 2 4 4 7 5 6 3 6 4 2 5 6 8 9 8 8 4 5 2 5 8 10 12 11 10 10 11 12 14 14 12 11 13 11 10 7
7 6 6 9 8 7 6 6 7 4 1 1 4 1 1 2 3 3 5 6 8 8 3 3 2 3 5 7 7 7 5 9 10 8 9 6 7 11 10 11 12 10 12 11 10 14 12 12 11 10 9 9 9 7
9 8 7 8 12 8 8 7 6 5 2 1 1 3 4 3 2 5 4 5 7 6 5 8 8 7 7 6 7 9 9 8 9 14 7 1 6 15 12 11 11 12 11 12 13 12 10 9 8 6 6 7 6 5
4 7 8 9 7 9 9 7 8 5 3 6 6 5 4 2 3 7 11 10 7 7 7 6 6 5 5 8 10 12 8 9 7 4 1 11 16 15 12 11 12 12 12 12 12 12 11 9 7 5 5 2 3 4
6 7 7 8 8 8 5 6 8 7 7 7 8 6 7 7 6 4 10 9 6 8 2 3 4 3 2 3 3 6 2 11 12 10 4 11 14 13 12 11 12 12 11 11 11 10 9 6 6 4 5 3 3 2
6 6 7 7 5 4 6 5 5 6 7 8 8 7 9 8 9 3 4 7 9 5 3 3 1 4 6 4 7 9 6 12 13 9 4 12 14 12 11 12 12 12 11 10 9 9 7 4 5 4 2 2 1 1
Wind_Direction
323 328 326 328 331 333 334 337 336 336 335 336 335 333 330 325 319 326 295 276 231 266 285 281 281 278 278 257 250 283 307 258 246 257 248 247 246 243 240 232 219 200 227 221 229 231 236 221 199 245 68 64 10 347
312 318 319 318 321 324 326 328 331 331 332 331 330 331 332 326 312 302 286 301 292 237 274 295 285 273 262 262 274 269 268 280 316 290 329 307 311 257 233 231 223 202 214 218 225 226 98 100 22 63 33 68 25 335
300 306 312 315 315 317 319 322 325 325 326 326 324 323 323 322 312 282 283 286 283 266 276 259 258 267 232 233 235 256 245 239 247 323 344 302 287 282 278 230 205 256 223 212 213 120 99 73 98 60 297 284 323 251
293 296 301 308 313 315 316 318 320 321 322 324 320 317 318 318 310 288 271 267 262 286 280 304 314 292 248 232 211 227 248 116 344 311 348 285 277 335 289 288 140 26 263 208 121 110 131 80 58 62 78 106 109 100
289 291 296 302 308 309 312 314 316 318 321 321 320 313 313 319 309 290 270 255 236 247 317 303 304 285 247 238 237 216 222 185 64 344 248 270 276 270 261 244 145 122 263 181 107 114 83 99 91 84 96 97 98 103
282 285 287 296 304 307 307 310 313 316 317 318 318 313 313 315 306 294 275 187 215 214 286 290 342 287 282 263 191 191 169 169 142 210 262 253 253 260 283 152 95 52 11 62 110 93 106 109 111 110 107 108 105 102
274 278 285 291 298 304 305 310 312 315 316 316 318 317 312 303 255 218 349 81 167 173 245 280 265 223 287 146 128 141 165 201 214 223 225 253 271 259 287 2 97 122 123 79 96 116 122 126 118 116 109 109 107 108
266 272 279 287 295 303 304 310 313 315 316 317 318 316 315 292 208 247 272 209 171 196 231 267 269 134 189 161 163 129 157 213 226 228 268 251 267 238 73 43 355 52 87 79 69 72 85 71 109 120 124 114 116 116
262 266 274 282 292 300 303 311 314 316 320 323 323 309 286 223 220 53 55 207 188 225 277 257 282 38 300 275 128 101 120 246 225 213 225 258 246 39 28 62 356 21 36 36 62 70 109 123 116 135 143 161 128 115
261 262 267 276 288 296 303 311 315 321 328 325 302 208 196 116 43 301 129 143 193 223 231 257 278 256 233 239 191 116 213 243 189 199 157 232 87 71 58 51 39 33 25 22 24 90 90 102 109 84 56 46 112 120
258 257 263 272 284 293 303 312 320 331 339 326 324 332 337 314 250 216 218 191 189 233 207 234 252 270 279 323 323 128 247 263 156 130 187 154 183 73 47 50 42 36 38 42 41 53 44 54 30 109 111 105 120 129
255 252 258 269 280 290 301 311 319 328 327 303 294 301 291 257 222 241 134 342 247 299 315 320 313 286 278 285 223 219 274 216 24 174 215 205 106 84 64 52 44 37 36 39 33 42 55 148 196 140 141 131 121 126
250 250 257 266 277 288 296 309 293 308 320 238 227 240 223 247 279 238 233 206 264 284 292 323 328 289 316 296 336 277 223 98 223 206 100 114 130 111 84 67 58 45 49 43 47 52 68 92 123 133 127 128 134 133
246 249 257 265 276 291 297 278 299 326 287 253 213 255 251 257 236 188 251 277 247 267 293 308 310 279 239 286 206 272 295 259 143 186 107 135 120 103 85 66 51 40 35 58 67 78 89 100 110 119 123 126 129 128
241 251 260 268 285 270 240 293 306 275 266 260 225 245 232 262 301 101 215 287 258 257 269 292 281 257 227 258 73 285 345 351 342 89 164 102 102 97 82 60 50 42 18 98 104 109 113 115 113 112 116 112 112 116
231 268 260 249 224 234 293 306 271 234 244 243 244 248 254 264 331 166 210 266 297 287 282 228 247 233 212 174 242 161 237 333 75 82 108 119 92 86 83 75 63 49 13 44 134 144 137 135 118 118 116 118 122 128
205 233 230 223 238 287 305 257 215 229 252 236 233 226 261 279 286 317 309 250 268 283 290 278 252 345 301 264 90 276 168 105 94 88 66 75 93 103 97 86 74 61 61 71 41 24 29 72 87 86 72 39 19 114
207 195 240 268 301 294 210 215 240 239 239 243 255 257 250 261 287 278 215 249 267 289 318 298 295 325 335 346 7 33 58 58 61 82 99 103 111 119 109 92 72 83 93 83 91 80 52 352 194 120 152 136 235 196
195 185 240 288 273 274 252 218 238 262 242 258 257 268 271 275 279 280 240 269 267 272 281 279 298 337 15 354 344 353 347 87 99 102 115 121 130 116 104 104 87 92 92 132 152 143 127 78 52 0 20 4 329 187
235 253 263 256 203 244 231 221 207 259 274 327 256 261 265 261 267 234 237 231 238 213 223 222 168 238 172 223 240 298 315 344 240 104 122 140 132 129 176 220 116 160 202 161 176 274 109 230 94 344 17 345 310 336
248 222 168 168 193 246 292 265 233 265 294 281 285 264 266 253 227 237 234 229 227 234 247 181 150 17 34 12 287 298 313 56 120 108 123 97 191 202 138 126 256 310 303 253 143 178 217 360 352 348 336 310 355 66
155 171 182 193 222 225 257 249 273 333 282 269 286 258 263 251 227 218 224 225 233 236 233 268 232 289 148 22 351 184 117 121 87 103 128 195 263 12 65 186 142 339 335 355 348 2 10 25 358 332 2 41 50 49
185 191 215 201 225 222 259 234 243 238 243 254 216 228 226 217 224 127 235 225 231 230 181 205 204 242 295 312 312 200 168 162 127 124 281 232 102 107 89 102 133 186 233 93 22 23 42 31 48 57 67 77 83 76
207 226 229 214 206 246 230 217 216 262 234 230 250 246 236 198 151 246 247 232 215 149 176 192 216 226 203 234 235 185 177 174 138 209 265 272 129 128 147 157 149 50 34 52 59 74 78 78 99 95 99 105 110 107
181 247 172 242 236 223 241 223 219 233 235 219 231 240 197 165 223 229 240 35 189 138 156 204 260 257 235 201 198 160 162 173 191 202 235 166 209 151 145 103 70 58 65 103 94 97 103 109 114 114 116 119 107 88
210 217 195 206 213 212 209 234 210 219 236 230 233 265 192 225 241 223 116 79 87 102 169 197 235 258 295 271 170 158 188 212 218 213 163 240 238 120 230 169 157 112 90 103 122 124 128 127 130 126 119 117 120 119
237 231 196 242 270 207 251 263 283 242 235 225 244 202 174 232 216 90 106 69 87 326 329 250 253 208 198 300 301 1 107 164 210 38 112 248 247 75 112 141 76 107 121 112 121 126 129 137 136 139 140 143 142 134
237 250 229 207 216 236 261 282 200 217 229 227 254 195 288 13 72 132 149 151 309 290 280 247 231 249 238 216 195 185 197 202 187 214 192 199 132 107 86 93 111 120 117 118 128 131 131 134 139 143 147 148 161 165
228 229 224 229 215 214 228 235 247 225 267 190 267 236 110 114 119 142 164 185 238 264 238 262 212 233 225 203 212 229 227 208 207 199 218 190 159 123 124 130 137 132 126 130 124 126 133 139 146 145 148 151 156 164
233 230 219 219 220 220 229 228 255 273 207 227 223 221 221 193 140 161 243 208 241 246 230 248 184 189 180 209 213 210 209 225 209 206 193 171 183 138 153 153 144 143 141 140 138 137 137 140 145 143 152 155 170 181
222 209 220 238 223 227 246 259 229 257 260 252 243 250 274 312 259 229 213 243 229 251 258 240 228 224 197 164 218 217 197 175 184 96 99 266 145 146 151 149 151 150 150 144 145 150 156 170 174 173 172 171 115 287
218 221 210 224 233 235 252 229 230 235 235 232 238 239 239 245 245 244 217 212 236 250 167 290 298 312 180 203 224 85 290 167 157 176 169 136 132 143 147 149 152 151 149 152 160 156 171 193 183 184 125 139 149 161
280 227 221 246 256 221 199 219 209 227 245 248 246 240 243 239 236 238 148 214 233 252 292 302 244 216 153 223 154 140 145 121 131 137 135 133 136 143 145 150 147 149 152 151 145 151 175 175 150 153 153 141 195 134